Regional Weather Roundup
Issued by NWS

Home | Current Version | Previous Version | Text Only | Print | Product List | Glossary Off
Versions: 1 2 3 4 5 6 7 8 9 10 11 12 13 14 15 16 17 18 19 20 21 22 23 24 25 26 27 28 29 30 31 32 33 34 35 36 37 38 39 40 41 42 43 44 45 46 47 48 49 50

000
ASUS43 KMKX 252121
RWRWI

WISCONSIN REGIONAL WEATHER ROUNDUP
NATIONAL WEATHER SERVICE MILWAUKEE/SULLIVAN WI
300 PM CST TUE NOV 25 2014

NOTE: "FAIR" INDICATES FEW OR NO CLOUDS BELOW 12,000 FEET WITH NO
SIGNIFICANT WEATHER AND/OR OBSTRUCTIONS TO VISIBILITY.

WIZ001-002-006>008-014>016-023>028-252200-
NORTHWEST WISCONSIN

CITY           SKY/WX    TMP DP  RH WIND       PRES   REMARKS
SUPERIOR ARPT  MOSUNNY   22  10  58 SW9       30.01S WCI  12
ASHLAND        SUNNY     22  14  71 SW8       30.01S WCI  12
HAYWARD        CLOUDY    19  12  74 SW7       30.01R WCI  10
SIREN          CLOUDY    19  11  72 SW5       30.03S WCI  12
CUMBERLAND     CLOUDY    19  12  73 SW5       30.01S WCI  13
RICE LAKE      CLOUDY    20  12  71 S5        30.04R WCI  14
CHETEK         CLOUDY    20  12  70 CALM      30.04R
LADYSMITH      SUNNY     22  13  69 SW6       30.03S WCI  14
EAU CLAIRE     CLOUDY    21  12  68 SW5       30.05S WCI  15
MENOMONIE      CLOUDY    23  14  67 S5        30.05S WCI  17
NEW RICHMOND   CLOUDY    22  13  70 SW5       30.04R WCI  15
OSCEOLA        CLOUDY    21  13  71 SW5       30.07S WCI  15
$$

WIZ003>005-009-010-017-018-252200-
NORTH CENTRAL WISCONSIN

CITY           SKY/WX    TMP DP  RH WIND       PRES   REMARKS
MANITOWISH WTR SUNNY     19  10  69 SW3       29.95S
ARBOR VITAE    SUNNY     20  12  71 SW5       29.96S WCI  13
WOODRUFF       SUNNY     20  12  71 SW5       29.96S WCI  13
RHINELANDER    MOSUNNY   16   9  74 W5        29.97S WCI   9
EAGLE RIVER    CLEAR     19   8  63 SW6       29.95S WCI  11
LAND O LAKES   CLEAR     21  11  65 SW3       29.96R
PHILLIPS       MOSUNNY   19  11  73 SW6       29.98S WCI  11
TOMAHAWK       SUNNY     18  11  74 CALM      30.00S
MEDFORD        SUNNY     19  11  69 SW3       29.99S
MERRILL        SUNNY     21  13  69 SW6       30.00S WCI  14
$$

WIZ029-030-035-036-043>047-252200-
CENTRAL WISCONSIN

CITY           SKY/WX    TMP DP  RH WIND       PRES   REMARKS
WAUSAU         MOSUNNY   17  11  77 W6        30.02R WCI   9
MOSINEE        PTSUNNY   19  16  86 W6        30.03R WCI  11
MARSHFIELD     SUNNY     21  12  68 W6        30.03R WCI  13
STEVENS POINT  MOSUNNY   19  13  77 W7        30.04S HAZE    WCI  10
WAUPACA        MOSUNNY   25  16  68 W6        30.06R WCI  18
WAUTOMA        CLOUDY    21  15  78 W7        30.08R WCI  12
WISC RAPIDS    PTSUNNY   22  13  68 VRB5      30.07R WCI  16
CAMP DOUGLAS   MOSUNNY   23  18  80 W6        30.07R WCI  16
$$

WIZ011>013-019>022-031-037>040-048>050-252200-
NORTHEAST WISCONSIN

CITY           SKY/WX    TMP DP  RH WIND       PRES   REMARKS
ANTIGO         PTSUNNY   18  12  79 W8        29.99R WCI   7
SHAWANO        CLOUDY    25  17  72 W7        30.05R WCI  17
OCONTO         CLOUDY    24  18  78 W7        30.05R WCI  16
STURGEON BAY   CLOUDY    25  16  68 W8        30.04R WCI  16
GREEN BAY      CLOUDY    24  16  71 W13       30.06R WCI  12
MANITOWOC      CLOUDY    24  18  77 W12       30.07R WCI  13
APPLETON       CLOUDY    21  16  79 W14       30.06R WCI   8
CLINTONVILLE   CLOUDY    23  16  74 W8        30.05R WCI  14
OSHKOSH        CLOUDY    22  15  75 VRB5      30.07R WCI  16
$$

WIZ032>034-041-042-053>061-252200-
SOUTHWEST WISCONSIN

CITY           SKY/WX    TMP DP  RH WIND       PRES   REMARKS
LA CROSSE      SUNNY     26  14  60 E3        30.08F
SPARTA         SUNNY     24  14  67 W5        30.09R WCI  18
VIROQUA        SUNNY     22  14  71 SW7       30.05S WCI  14
BOSCOBEL       SUNNY     26  14  60 W6        30.11R WCI  19
PRAIRIE DU CHI SUNNY     25  14  63 CALM      30.11S
PLATTEVILLE    SUNNY     24  17  74 SW6       30.11R WCI  17
$$

WIZ056-057-062-063-064-067-068-252200-
SOUTH CENTRAL WISCONSIN

CITY           SKY/WX    TMP DP  RH WIND       PRES   REMARKS
REEDSBURG      MOSUNNY   22  15  76 W5        30.07S WCI  15
BARABOO/DELLS  CLOUDY    22  16  78 SW8       30.07R WCI  12
LONE ROCK      SUNNY     28  15  58 W6        30.10R WCI  22
MINERAL POINT  SUNNY     27  16  63 W6        30.08R WCI  20
MADISON        CLOUDY    22  16  78 NW6       30.09R WCI  14
MIDDLETON      CLOUDY    24  17  73 W5        30.09R WCI  19
WATERTOWN      CLOUDY    22  17  82 W6        30.09R WCI  14
MONROE         SUNNY     23  18  80 SW9       30.09R WCI  13
JANESVILLE     PTSUNNY   25  18  74 W14       30.11R WCI  13
$$

WIZ051-052-058>065-066-070>072-252200-
SOUTHEAST WISCONSIN

CITY           SKY/WX    TMP DP  RH WIND       PRES   REMARKS
MILWAUKEE      CLOUDY    25  17  72 W8        30.10R WCI  16
WAUKESHA       CLOUDY    21  18  86 W12       30.10R WCI   9
MILWAUKEE/TIMM CLOUDY    23  16  74 W9        30.10R WCI  13
RACINE         CLOUDY    24  17  74 W13       30.13R WCI  12
BURLINGTON     CLOUDY    22  16  79 W8        30.11R WCI  12
KENOSHA        MOSUNNY   24  17  74 W8        30.11R WCI  15
FOND DU LAC    CLOUDY    22  15  75 W8        30.08R WCI  12
SHEBOYGAN      CLOUDY    22  15  75 W15       30.07R WCI   9
WEST BEND      CLOUDY    21  16  79 W9        30.08R WCI  11
JUNEAU         CLOUDY    21  15  79 W6        30.09R WCI  13
$$

LSZ147-162-252200-
LAKE SUPERIOR

STATION/POSITION TIME  TEMP    WIND        PRES    WAVE
                       AIR SEA DIR/SP/G            HT/PER
                 (UTC) (F)     (DEG/KT/KT) (MB)    (FT/S)
DEVILS ISLAND    2100   23     230/  8/ 12 1017.1R
PORT WING        2000   23     190/  8/ 12 1015.9F
SAXON HARBOR     2000   23     200/  4/ 12 1016.3F
$$

LMZ867-665-643>646-252200-
LAKE MICHIGAN

STATION/POSITION TIME  TEMP    WIND        PRES    WAVE
                       AIR SEA DIR/SP/G            HT/PER
                 (UTC) (F)     (DEG/KT/KT) (MB)    (FT/S)
CHAMBERS ISLAND  2000   27     300/  8/ 11 1015.9R
N MID LAKE BUOY  2050   28 42  280/ 12/ 14 1016.8R   3/ 4
NORTHPORT PIER   2100   27     290/  6/ 13 1016.9R
SISTER BAY       2013          360/ 13/ 15   N/A
KEWAUNEE LAKESHO 2100   23     280/  6/ 11 1016.8R
SHEBOYGAN LAKESH 2100   23 35  240/  9/ 12 1019.9R
PORT WASHINGTON  2000   24     260/ 12/ 17 1019.0R
MILWAUKEE LAKESH 2100   25     280/  8/ 13   N/A
S MID LAKE BUOY  2050   28 42  240/ 14/ 16 1020.4R   3/ 6
KENOSHA   LAKESH 2100   25     260/ 10/ 14 1020.0R
$$

TC  - TEMPERATURE IN CELSIUS
VSB - VISIBILITY IN STATUTE MILES
WCI - WIND CHILL INDEX
HX  - HEAT INDEX




USA.gov is the U.S. government's official web portal to all federal, state and local government web resources and services.